Tracking 31023 objects as of 19-Jul-2025
HD Live streaming from Space Station
objects crossing your sky now

PSLV R/B

Track PSLV R/B now!
10-day predictions
PSLV R/B is classified as:


NORAD ID: 39200
Int'l Code: 2013-034B
Perigee: 296.3 km
Apogee: 18,299.7 km
Inclination: 17.8 °
Period: 325.3 minutes
Semi major axis: 15669 km
RCS: Unknown
Launch date: July 1, 2013
Source: India (IND)
Launch site: SRIHARIKOTA (SRI)

Note: This is a ROCKET BODY
Your satellite tracking list
Your tracking list is empty




NASA's NSSDC Master Catalog

Two Line Element Set (TLE):
1 39200U 13034B   25198.80191144  .00004271  00000-0  84175-3 0  9990
2 39200  17.8077  50.9505 5744924 180.9753 177.0792  4.42629464182531
Source of the keplerian elements: AFSPC